Atlanta, GA

7:08 PM EST on February 06, 2016 (GMT -0500)
Fulton County-Brown

Weather History for KFTY - October, 2013

Change the Weather History Date:

Thursday, October 17, 2013

  Actual Average Record
Temperature  
Mean Temperature 66 °F 62 °F  
Max Temperature 71 °F 73 °F 84 °F (2011)
Min Temperature 61 °F 51 °F 37 °F (2001)
Degree Days  
Heating Degree Days 0 4  
Month to date heating degree days 1 46  
Since 1 July heating degree days 1 56  
Cooling Degree Days 1 1  
Month to date cooling degree days 54 42  
Year to date cooling degree days 1616 1723  
Growing Degree Days 17 (Base 50)    
Moisture  
Dew Point 65 °F    
Average Humidity 91    
Maximum Humidity 97    
Minimum Humidity 84    
Precipitation  
Precipitation 0.45 in 0.12 in 1.14 in (1957)
Month to date precipitation 3.38 2.09  
Year to date precipitation 41.49  
Snow  
Snow 0.00 in - - ()
Month to date snowfall 0.0  
Since 1 July snowfall 0.0  
Since 1 September snowfall 0.0  
Snow Depth 0.00 in    
Sea Level Pressure  
Sea Level Pressure 29.93 in    
Wind  
Wind Speed 2 mph (WSW)    
Max Wind Speed 8 mph    
Max Gust Speed 13 mph    
Visibility 7 miles    
Events Rain    
T = Trace of Precipitation, MM = Missing Value Source: NWS Daily Summary

Daily Weather History Graph

Daily Weather History Graph

Search for Another Location

Airport or City:

Trip Planner

Search our weather history database for the weather conditions in past years. The results will help you decide how hot, cold, wet, or windy it might be!

Date:

Astronomy

Oct. 17, 2013 Rise Set
Actual Time 7:44 AM EDT 7:01 PM EDT
Civil Twilight 7:19 AM EDT 7:26 PM EDT
Nautical Twilight 6:50 AM EDT 7:55 PM EDT
Astronomical Twilight 6:21 AM EDT 8:24 PM EDT
Moon 6:13 PM EDT (10/17) 6:18 AM EDT (10/17)
Length of Visible Light 12h 07m
Length of Day
11h 16m
Waxing Gibbous, 98% of the Moon is Illuminated
Oct 17
Waxing Gibbous
Oct 18
Full
Oct 26
Last Quarter
Nov 3
New
Nov 10
First Quarter

Hourly Weather History & Observations

Time (EDT) Temp. Dew Point Humidity Pressure Visibility Wind Dir Wind Speed Gust Speed Precip Events Conditions
12:53 AM 66.0 °F 63.0 °F 90% 29.95 in 10.0 mi Calm Calm - N/A   Overcast
1:53 AM 66.9 °F 62.1 °F 84% 29.95 in 10.0 mi Calm Calm - N/A   Overcast
2:53 AM 66.0 °F 63.0 °F 90% 29.94 in 10.0 mi Calm Calm - N/A   Overcast
3:53 AM 64.9 °F 63.0 °F 93% 29.93 in 10.0 mi Calm Calm - N/A   Overcast
4:53 AM 66.0 °F 63.0 °F 90% 29.93 in 10.0 mi Calm Calm - N/A   Overcast
5:53 AM 64.9 °F 63.0 °F 93% 29.94 in 5.0 mi Calm Calm - 0.04 in Rain Rain
6:53 AM 64.9 °F 63.0 °F 93% 29.93 in 5.0 mi Calm Calm - 0.03 in Rain Light Rain
7:53 AM 64.9 °F 63.0 °F 93% 29.93 in 10.0 mi Calm Calm - 0.03 in Rain Light Rain
8:53 AM 64.9 °F 63.0 °F 93% 29.94 in 9.0 mi South 3.5 mph - 0.01 in Rain Light Rain
9:07 AM 64.4 °F 62.6 °F 94% 29.96 in 10.0 mi SSW 3.5 mph - 0.01 in Rain Light Rain
9:53 AM 64.9 °F 63.0 °F 93% 29.96 in 10.0 mi Calm Calm - 0.01 in   Overcast
10:53 AM 66.0 °F 64.0 °F 93% 29.96 in 9.0 mi SW 3.5 mph - 0.00 in   Overcast
11:53 AM 68.0 °F 64.9 °F 90% 29.95 in 8.0 mi SW 3.5 mph - 0.00 in   Overcast
12:53 PM 69.1 °F 66.0 °F 90% 29.94 in 9.0 mi SW 5.8 mph - 0.00 in Rain Light Rain
1:02 PM 69.8 °F 66.2 °F 88% 29.96 in 6.0 mi SW 6.9 mph - 0.01 in Rain Light Rain
1:53 PM 70.0 °F 66.9 °F 90% 29.92 in 6.0 mi SW 6.9 mph - 0.02 in Rain Light Rain
2:00 PM 69.8 °F 66.2 °F 88% 29.94 in 5.0 mi SW 5.8 mph - 0.00 in Rain Light Rain
2:05 PM 69.8 °F 66.2 °F 88% 29.93 in 1.8 mi Variable 4.6 mph - 0.03 in Rain Rain
2:20 PM 69.8 °F 66.2 °F 88% 29.93 in 1.5 mi WSW 4.6 mph - 0.09 in Rain Rain
2:42 PM 69.8 °F 66.2 °F 88% 29.92 in 3.0 mi SW 4.6 mph - 0.18 in Rain Light Rain
2:53 PM 69.1 °F 66.9 °F 93% 29.90 in 5.0 mi Variable 3.5 mph - 0.18 in Rain Light Rain
3:20 PM 69.8 °F 66.2 °F 88% 29.91 in 3.0 mi West 4.6 mph - 0.03 in Rain Light Rain
3:53 PM 69.1 °F 68.0 °F 96% 29.89 in 3.0 mi SW 3.5 mph - 0.03 in Rain Light Rain
4:05 PM 69.8 °F 66.2 °F 88% 29.91 in 5.0 mi SSW 6.9 mph - 0.01 in Rain Light Rain
4:18 PM 69.8 °F 66.2 °F 88% 29.91 in 1.8 mi SW 4.6 mph - 0.04 in Rain Rain
4:32 PM 69.8 °F 66.2 °F 88% 29.91 in 3.0 mi WSW 4.6 mph - 0.07 in Rain Light Rain
4:53 PM 69.1 °F 66.9 °F 93% 29.89 in 3.0 mi SW 5.8 mph - 0.09 in Rain Light Rain
5:41 PM 69.8 °F 68.0 °F 94% 29.91 in 6.0 mi Calm Calm - 0.01 in Rain Light Rain
5:53 PM 69.1 °F 66.9 °F 93% 29.89 in 10.0 mi NW 4.6 mph - 0.01 in   Overcast
6:03 PM 69.8 °F 66.2 °F 88% 29.92 in 8.0 mi Calm Calm - N/A   Overcast
6:37 PM 69.8 °F 66.2 °F 88% 29.92 in 10.0 mi Calm Calm - N/A   Mostly Cloudy
6:53 PM 69.1 °F 64.9 °F 87% 29.90 in 10.0 mi NNW 3.5 mph - N/A   Mostly Cloudy
7:49 PM 68.0 °F 64.4 °F 88% 29.93 in 10.0 mi West 3.5 mph - N/A   Overcast
7:53 PM 68.0 °F 64.9 °F 90% 29.92 in 10.0 mi Calm Calm - N/A   Overcast
8:53 PM 66.0 °F 63.0 °F 90% 29.93 in 10.0 mi WNW 5.8 mph - N/A   Partly Cloudy
9:53 PM 64.9 °F 62.1 °F 90% 29.95 in 10.0 mi NW 4.6 mph - N/A   Overcast
10:01 PM 64.4 °F 62.6 °F 94% 29.96 in 10.0 mi Calm Calm - N/A   Overcast
10:53 PM 64.0 °F 60.1 °F 87% 29.96 in 10.0 mi Calm Calm - N/A   Overcast
11:53 PM 61.0 °F 59.0 °F 93% 29.95 in 10.0 mi Calm Calm - N/A   Overcast